[[{"header":{"parameterUnit":"m.s-1","parameterCategory":1,"la1":30.2991,"la2":30.254,"lo1":-89.0895,"lo2":-89.0444,"dx":0.0017,"dy":0.0017,"nx":28,"ny":28,"refTime":"2022-11-21T15:00:00:Z","depth":0,"parameterNumber":2,"parameterNumberName":"U-component_of_WINDS"},"data":[0,0,0,0,0,0,0,0,0,0,0,0,0,0,0,0,0,0,0,0,0,0,0,0,0,0,0,0,0,0,0,0,0,0,0,0,0,0,0,0,0,0,0,0,0,0,0,0,0,0,0,0,0,0,0,0,0,0,-1.0221,-1.0222,0,-1.0307,-1.0308,-1.0309,-1.031,-1.0309,-1.0308,-1.0307,-1.0397,-1.0401,-1.0404,0,0,0,0,0,0,0,0,0,0,0,0,0,-1.0059,-1.0062,-1.0221,-1.0222,-1.0223,-1.0307,-1.0308,-1.031,-1.031,-1.0309,-1.0307,-1.0306,-1.0396,-1.04,-1.0404,0,0,0,0,0,0,0,0,0,0,0,0,0,-1.0136,-1.0063,-1.0221,-1.0234,-1.0236,-1.0307,-1.0309,-1.031,-1.031,-1.0309,-1.0307,-1.0306,-1.0395,-1.04,-1.0405,-1.047,0,0,-1.0421,-1.0423,0,0,0,0,0,0,0,0,-1.0132,-1.0142,-1.0231,-1.0233,-1.0235,-1.0296,-1.0285,-1.0364,-1.0311,-1.0282,-1.0307,-1.0305,-1.0365,-1.0373,-1.0393,-1.0474,-1.0478,-1.0421,-1.0424,-1.0427,-1.0428,0,0,0,0,0,0,0,-1.0126,-1.0138,-1.0255,-1.0232,-1.0235,-1.0236,-1.0245,-1.03,-1.0332,-1.0285,-1.0285,-1.0295,-1.0366,-1.0388,-1.0395,-1.048,-1.0421,-1.0426,-1.0429,-1.0431,-1.0621,-1.0623,0,0,0,0,0,0,-1.0118,-1.0134,-1.0253,-1.0258,-1.0178,-1.024,-1.025,-1.0278,-1.0331,-1.0338,-1.0296,-1.0295,-1.038,-1.0389,-1.0398,-1.048,-1.0427,-1.0431,-1.0434,-1.062,-1.0622,-1.0624,0,0,0,0,0,0,-1.0115,-1.0129,-1.0249,-1.0196,-1.0211,-1.0245,-1.0276,-1.0281,-1.0302,-1.034,-1.0346,-1.0312,-1.0379,-1.0391,-1.0453,-1.0483,-1.0434,-1.0438,-1.0617,-1.062,-1.0623,-1.0643,0,0,0,0,0,0,-1.011,-1.0127,-1.0152,-1.0197,-1.0214,-1.0302,-1.0278,-1.0284,-1.0311,-1.031,-1.0357,-1.0363,-1.0378,-1.0445,-1.0458,-1.0489,-1.0442,-1.0615,-1.0619,-1.0622,-1.064,-1.0646,-1.0652,0,0,0,0,0,-1.0104,-1.0154,-1.0153,-1.0168,-1.0246,-1.0303,-1.0314,-1.033,-1.0313,-1.0339,-1.0363,-1.0361,-1.0477,-1.0451,-1.0466,-1.0499,-1.0613,-1.0617,-1.0622,-1.0637,-1.0645,-1.0651,0,0,0,0,0,0,-1.0113,-1.016,-1.016,-1.0226,-1.026,-1.0303,-1.0336,-1.0337,-1.0378,-1.0375,-1.0394,-1.0404,-1.0467,-1.0489,-1.0459,-1.0566,-1.0543,-1.0551,-1.055,-1.0557,-1.0563,-1.0558,-1.0447,0,0,0,0,0,-1.0123,-1.0165,-1.0204,-1.0258,-1.0276,-1.0303,-1.0329,-1.0338,-1.0375,-1.039,-1.0419,-1.0456,-1.0501,-1.053,-1.0573,-1.0642,-1.0653,-1.0672,-1.0678,-1.0683,-1.069,-1.073,-1.074,-1.0639,-1.0638,-1.0638,0,0,-1.0143,-1.0174,-1.02,-1.0261,-1.0289,-1.0334,-1.0315,-1.0363,-1.0397,-1.0398,-1.0459,-1.0481,-1.0523,-1.0589,-1.062,-1.061,-1.072,-1.0688,-1.0692,-1.0697,-1.0736,-1.0745,-1.0754,-1.0642,-1.0641,-1.064,0,0,-1.0204,-1.023,-1.028,-1.0308,-1.0351,-1.0368,-1.038,-1.0423,-1.0438,-1.0499,-1.0501,-1.0541,-1.0617,-1.0648,-1.0674,-1.0746,-1.0746,-1.0759,-1.0791,-1.083,-1.0838,-1.0846,-1.0874,-1.0883,-1.0765,-1.0765,-1.0766,0,-1.0224,-1.0291,-1.0305,-1.0353,-1.0381,-1.0382,-1.0433,-1.046,-1.0515,-1.0535,-1.0522,-1.0618,-1.0647,-1.0721,-1.0739,-1.0759,-1.0774,-1.0755,-1.0836,-1.0843,-1.085,-1.0877,-1.0888,-1.0767,-1.0767,-1.0767,-1.0766,0,-1.0315,-1.0361,-1.0396,-1.0449,-1.048,-1.0529,-1.0552,-1.0582,-1.0588,-1.0607,-1.067,-1.0704,-1.0755,-1.0772,-1.0779,-1.0849,-1.0841,-1.0832,-1.081,-1.0861,-1.0887,-1.0897,-1.0769,-1.0769,-1.0768,-1.0768,0,0,-1.0386,-1.0445,-1.0458,-1.0483,-1.053,-1.0566,-1.0616,-1.0665,-1.0691,-1.0728,-1.0772,-1.0836,-1.0828,-1.0857,-1.0867,-1.0901,-1.0959,-1.0888,-1.0889,-1.0902,-1.104,-1.1049,-1.1061,-1.0958,-1.096,-1.0962,-1.1038,0,-1.0454,-1.0542,-1.0556,-1.0634,-1.0678,-1.0679,-1.0723,-1.0757,-1.0776,-1.0817,-1.0838,-1.0884,-1.0869,-1.0887,-1.092,-1.0945,-1.0987,-1.0939,-1.1001,-1.1003,-1.0993,-1.1074,-1.1083,-1.1154,-1.1048,-1.1049,-1.105,0,-1.0545,-1.0585,-1.0667,-1.0709,-1.0728,-1.0767,-1.0814,-1.0852,-1.0891,-1.0903,-1.0935,-1.0941,-1.0994,-1.0967,-1.1041,-1.1008,-1.1034,-1.105,-1.1053,-1.1062,-1.1032,-1.1088,-1.1176,-1.1188,-1.1066,-1.1065,-1.1064,0,-1.0592,-1.0666,-1.0725,-1.0745,-1.0795,-1.0823,-1.0845,-1.0882,-1.0911,-1.0952,-1.0971,-1.1018,-1.1044,-1.108,-1.1099,-1.1077,-1.1173,-1.1147,-1.1186,-1.1185,-1.1208,-1.1207,-1.1305,-1.122,-1.122,-1.1219,-1.1219,0,-1.0668,-1.0719,-1.0747,-1.0784,-1.0841,-1.0856,-1.0913,-1.0935,-1.0968,-1.101,-1.1013,-1.1053,-1.1073,-1.1116,-1.1131,-1.1191,-1.1202,-1.1215,-1.1219,-1.1216,-1.1215,-1.1236,-1.1232,-1.1222,-1.1222,-1.1221,-1.1221,0,-1.0731,-1.0752,-1.0817,-1.0858,-1.087,-1.0911,-1.0947,-1.0983,-1.1001,-1.1055,-1.1068,-1.1097,-1.1148,-1.1169,-1.1231,-1.1241,-1.1312,-1.131,-1.1299,-1.1301,-1.1339,-1.1336,-1.1456,-1.1474,-1.1374,-1.1375,-1.1376,0,-1.078,-1.0819,-1.0865,-1.0893,-1.0916,-1.0961,-1.099,-1.1007,-1.1038,-1.1085,-1.1116,-1.1167,-1.1208,-1.1289,-1.1317,-1.1364,-1.1366,-1.1405,-1.1374,-1.1371,-1.137,-1.1369,-1.1374,-1.1412,-1.1413,-1.1413,-1.1414,0,-1.0865,-1.0873,-1.0916,-1.0962,-1.0997,-1.1034,-1.107,-1.1093,-1.1115,-1.115,-1.1202,-1.1234,-1.1297,-1.1348,-1.1397,-1.1421,-1.1423,-1.1423,-1.1435,-1.1435,-1.1428,-1.1435,-1.1317,-1.1421,-1.142,-1.142,-1.1419,-1.1419,-1.0925,-1.0961,-1.0999,-1.1046,-1.1075,-1.1109,-1.1145,-1.1168,-1.1211,-1.1264,-1.1271,-1.1327,-1.1365,-1.1432,-1.1457,-1.1502,-1.1492,-1.1509,-1.1514,-1.1519,-1.1523,-1.1418,-1.151,-1.151,-1.151,-1.151,-1.151,0,-1.1013,-1.1037,-1.108,-1.1131,-1.1169,-1.1164,-1.1204,-1.1237,-1.1285,-1.1321,-1.1362,-1.1422,-1.1471,-1.1502,-1.1552,-1.1581,-1.1583,-1.1594,-1.1594,-1.16,-1.1527,-1.1513,-1.1592,-1.1592,-1.1592,-1.1592,-1.1592,-1.1592,-1.1063,-1.1124,-1.1137,-1.1213,-1.1237,-1.1291,-1.1315,-1.1346,-1.1375,-1.1442,-1.1483,-1.1502,-1.1536,-1.1589,-1.1634,-1.1642,-1.1661,-1.1673,-1.1681,-1.1613,-1.1605,-1.1597,-1.1584,-1.1677,-1.1677,-1.1751,-1.1752,-1.1752]},{"header":{"parameterUnit":"m.s-1","parameterCategory":1,"la1":30.2991,"la2":30.254,"lo1":-89.0895,"lo2":-89.0444,"dx":0.0017,"dy":0.0017,"nx":28,"ny":28,"refTime":"2022-11-21T15:00:00:Z","depth":0,"parameterNumber":3,"parameterNumberName":"V-component_of_WINDS"},"data":[0,0,0,0,0,0,0,0,0,0,0,0,0,0,0,0,0,0,0,0,0,0,0,0,0,0,0,0,0,0,0,0,0,0,0,0,0,0,0,0,0,0,0,0,0,0,0,0,0,0,0,0,0,0,0,0,0,0,-3.8779,-3.878,0,-3.8828,-3.8829,-3.8829,-3.8786,-3.8784,-3.8782,-3.8781,-3.8827,-3.883,-3.8832,0,0,0,0,0,0,0,0,0,0,0,0,0,-3.8644,-3.8647,-3.8779,-3.878,-3.878,-3.8828,-3.8829,-3.8829,-3.8786,-3.8784,-3.8782,-3.878,-3.8826,-3.8829,-3.8833,0,0,0,0,0,0,0,0,0,0,0,0,0,-3.8699,-3.8648,-3.8779,-3.8765,-3.8764,-3.8828,-3.8829,-3.8829,-3.8787,-3.8784,-3.8781,-3.8779,-3.8825,-3.8829,-3.8833,-3.8912,0,0,-3.8846,-3.8848,0,0,0,0,0,0,0,0,-3.8696,-3.8704,-3.8766,-3.8766,-3.8765,-3.8798,-3.8798,-3.8857,-3.8787,-3.8778,-3.8781,-3.8778,-3.8819,-3.8824,-3.8839,-3.8914,-3.8916,-3.8847,-3.8849,-3.8851,-3.8852,0,0,0,0,0,0,0,-3.8692,-3.8701,-3.8798,-3.8767,-3.8767,-3.8754,-3.8759,-3.8809,-3.8813,-3.8779,-3.8776,-3.8782,-3.8818,-3.8835,-3.8839,-3.8917,-3.8846,-3.885,-3.8853,-3.8855,-3.906,-3.9063,0,0,0,0,0,0,-3.869,-3.8699,-3.8797,-3.88,-3.8723,-3.8759,-3.8764,-3.879,-3.8812,-3.8813,-3.8784,-3.878,-3.8828,-3.8834,-3.8841,-3.8935,-3.8851,-3.8855,-3.8857,-3.9057,-3.9061,-3.9064,0,0,0,0,0,0,-3.8688,-3.87,-3.8795,-3.8748,-3.876,-3.8764,-3.8793,-3.8793,-3.8809,-3.8816,-3.8816,-3.8801,-3.8827,-3.8835,-3.8895,-3.8936,-3.8857,-3.8861,-3.9054,-3.9058,-3.9062,-3.9125,0,0,0,0,0,0,-3.8684,-3.8699,-3.873,-3.875,-3.8762,-3.885,-3.8796,-3.8795,-3.8817,-3.8812,-3.8832,-3.8832,-3.8825,-3.8889,-3.8899,-3.8941,-3.8864,-3.905,-3.9056,-3.9061,-3.9119,-3.9131,-3.9141,0,0,0,0,0,-3.8679,-3.8745,-3.8732,-3.8744,-3.8802,-3.8852,-3.8859,-3.8851,-3.882,-3.8851,-3.8856,-3.8832,-3.893,-3.8896,-3.8907,-3.895,-3.9048,-3.9054,-3.9061,-3.9114,-3.9128,-3.914,0,0,0,0,0,0,-3.8728,-3.8747,-3.8733,-3.8807,-3.8829,-3.8845,-3.8884,-3.8866,-3.8896,-3.889,-3.8877,-3.8881,-3.8945,-3.8953,-3.8915,-3.9028,-3.8984,-3.8993,-3.9021,-3.9034,-3.9045,-3.9042,-3.8868,0,0,0,0,0,-3.8748,-3.8789,-3.8802,-3.8866,-3.8878,-3.8879,-3.8901,-3.8893,-3.8914,-3.8922,-3.8932,-3.8952,-3.8987,-3.9011,-3.9044,-3.912,-3.9123,-3.9155,-3.9166,-3.9175,-3.9183,-3.9223,-3.9238,-3.9085,-3.9085,-3.9085,0,0,-3.8788,-3.8804,-3.883,-3.8877,-3.8892,-3.8934,-3.8887,-3.8933,-3.8963,-3.8929,-3.8987,-3.8995,-3.9016,-3.9085,-3.9116,-3.9094,-3.9225,-3.9183,-3.919,-3.9193,-3.9232,-3.9246,-3.9259,-3.909,-3.9089,-3.9088,0,0,-3.8884,-3.89,-3.8955,-3.8972,-3.8997,-3.8998,-3.9011,-3.903,-3.9034,-3.9093,-3.9068,-3.9103,-3.9164,-3.9181,-3.9197,-3.9299,-3.9278,-3.931,-3.9367,-3.9407,-3.9419,-3.9429,-3.9466,-3.9479,-3.9318,-3.9318,-3.9318,0,-3.8931,-3.8994,-3.8985,-3.9034,-3.9054,-3.9026,-3.9082,-3.9098,-3.9132,-3.9147,-3.9122,-3.9198,-3.9211,-3.9283,-3.9308,-3.9322,-3.9337,-3.9308,-3.9418,-3.9428,-3.9438,-3.9473,-3.9487,-3.9322,-3.9322,-3.9321,-3.9321,0,-3.9051,-3.9095,-3.9136,-3.9172,-3.9197,-3.9249,-3.9246,-3.9272,-3.9262,-3.9264,-3.9324,-3.9338,-3.9374,-3.939,-3.9379,-3.9461,-3.9446,-3.942,-3.9375,-3.9457,-3.9489,-3.9502,-3.9328,-3.9326,-3.9325,-3.9324,0,0,-3.9179,-3.9209,-3.9225,-3.9241,-3.9266,-3.9299,-3.9349,-3.9385,-3.9408,-3.9432,-3.9473,-3.9526,-3.9502,-3.952,-3.9511,-3.9546,-3.9626,-3.9515,-3.9516,-3.9536,-3.9717,-3.9737,-3.9753,-3.9612,-3.9615,-3.9617,-3.9715,0,-3.9276,-3.9365,-3.9358,-3.9441,-3.9481,-3.9455,-3.9498,-3.9518,-3.9521,-3.9555,-3.9558,-3.9596,-3.9561,-3.9572,-3.9605,-3.961,-3.9663,-3.9602,-3.9649,-3.9651,-3.9646,-3.977,-3.9791,-3.9884,-3.9728,-3.973,-3.9731,0,-3.9401,-3.9432,-3.9519,-3.9539,-3.9556,-3.9595,-3.9628,-3.9661,-3.9682,-3.9682,-3.9703,-3.9688,-3.9737,-3.9691,-3.9757,-3.9717,-3.9735,-3.974,-3.9743,-3.9748,-3.9697,-3.9778,-3.9913,-3.9927,-3.9751,-3.975,-3.9748,0,-3.9487,-3.9549,-3.961,-3.9624,-3.9649,-3.9677,-3.9688,-3.9707,-3.9729,-3.9757,-3.9771,-3.9804,-3.9822,-3.9846,-3.984,-3.9807,-3.9908,-3.9862,-3.9909,-3.9909,-3.9932,-3.9931,-4.0072,-3.9943,-3.9943,-3.9943,-3.9942,0,-3.9596,-3.9651,-3.9649,-3.9686,-3.9746,-3.9737,-3.9796,-3.9804,-3.9821,-3.9858,-3.9836,-3.9872,-3.9861,-3.9895,-3.989,-3.9946,-3.9954,-3.9955,-3.9953,-3.9957,-3.9957,-3.997,-3.9963,-3.9946,-3.9946,-3.9945,-3.9944,0,-3.9702,-3.9703,-3.9768,-3.9786,-3.9792,-3.9835,-3.985,-3.9885,-3.9886,-3.9934,-3.9944,-3.9947,-3.9986,-3.9982,-4.0025,-4.0022,-4.0092,-4.0082,-4.0085,-4.0083,-4.0131,-4.0127,-4.0286,-4.0306,-4.0163,-4.0165,-4.0166,0,-3.9773,-3.9814,-3.9838,-3.9862,-3.9876,-3.9915,-3.9938,-3.993,-3.9954,-3.9982,-4.0013,-4.0051,-4.008,-4.0144,-4.0148,-4.0181,-4.0172,-4.0226,-4.0177,-4.018,-4.0174,-4.0172,-4.0176,-4.0236,-4.0237,-4.0239,-4.024,0,-3.9897,-3.9896,-3.9931,-3.9966,-3.9995,-4.0022,-4.0046,-4.0067,-4.0061,-4.0089,-4.013,-4.0153,-4.0198,-4.0236,-4.0267,-4.0277,-4.0257,-4.0255,-4.0268,-4.0273,-4.0274,-4.0274,-4.0112,-4.0252,-4.025,-4.0249,-4.0249,-4.0248,-3.9988,-4.0024,-4.0047,-4.0086,-4.0104,-4.0127,-4.0161,-4.0168,-4.0202,-4.0239,-4.0232,-4.0278,-4.0297,-4.0337,-4.035,-4.0385,-4.0365,-4.0383,-4.0388,-4.0393,-4.0399,-4.0268,-4.039,-4.039,-4.0389,-4.0389,-4.0389,0,-4.0112,-4.0125,-4.0162,-4.0198,-4.0229,-4.0209,-4.0235,-4.0262,-4.0303,-4.0323,-4.0354,-4.04,-4.0436,-4.0444,-4.0478,-4.0504,-4.0496,-4.0513,-4.0512,-4.0514,-4.0414,-4.04,-4.0519,-4.0519,-4.0519,-4.0519,-4.0519,-4.0519,-4.0181,-4.0241,-4.0242,-4.031,-4.0322,-4.0369,-4.0385,-4.0406,-4.0423,-4.0476,-4.0507,-4.0512,-4.0527,-4.0562,-4.0594,-4.0595,-4.0609,-4.063,-4.0627,-4.0534,-4.0521,-4.0509,-4.0495,-4.0633,-4.0633,-4.0724,-4.0725,-4.0726]}]]